Location: Miles
(41.4492°N, 81.6087°W)
Time: 08:34:57
(UTC+00:00)

Transit 2A - Pass Details

Date: 21 September 2024
Orbit: 590 x 960 km, 66.7° (Epoch: 09 October)

Event Time Altitude Azimuth Distance (km) Brightness Sun altitude
Rises 08:07:45 0° 324° (NW) 3,611 9.5 -33.4°
Enters shadow 08:08:18 - 324° (NW) 3,411 9.4 -33.3°
Reaches altitude 10° 08:10:28 10° 319° (NW) 2,632 - -33.0°
Maximum altitude 08:16:16 46° 248° (WSW) 1,167 - -32.1°
Drops below altitude 10° 08:21:37 10° 177° (S) 2,413 - -31.3°
Sets 08:24:00 0° 171° (S) 3,282 - -30.9°
